Home > Weather > Macapá > Past weeks

Flag for Brazil Past Weather in Macapá, Amapá, Brazil — Yesterday and Last 2 Weeks

Now
77 °F

Scattered clouds.


Feels Like: 78 °F
Forecast: 76 / 90 °F
Wind: 2 mph from West

Location: Macapa Airport

Current Time: Jun 25, 2016 at 7:40:48 AM

Latest Report: Jun 25, 2016 at 7:00 AM


Visibility: N/A

Pressure: 29.92 "Hg

Humidity: 100%

Dew Point: 77 °F

Location of MacapáLocation

Past Weather in Macapá — Graph

°F

Macapá Temperature Yesterday

Maximum temperature yesterday: 93 °F (at 12:00 PM)
Minimum temperature yesterday: 73 °F (at 6:00 AM)
Average temperature yesterday: 83 °F

High & Low Weather Summary for the Past Weeks

 TemperatureHumidityPressure
High97 °F (Jun 11, 2:00 PM)100% (Jun 10, 6:00 AM)30.07 "Hg (Jun 10, 6:00 AM)
Low73 °F (Jun 17, 6:00 AM)44% (Jun 11, 2:00 PM)29.83 "Hg (Jun 17, 5:00 PM)
Average83 °F81%29.96 "Hg
* Reported Jun 10 6:00 AM — Jun 25 6:00 AM, Macapá, Weather by CustomWeather, © 2016

Note: Actual official high and low records may vary slightly from our data, if they occured in-between our weather recording intervals... More about our weather records

Advertising

Macapá Weather History for the Previous 24 Hours

Scroll right to see more
 ConditionsComfort  
Time TempWeatherWind HumidityBarometerVisibility
6:00 AM
Sat, Jun 25
77 °FPassing clouds.2 mph100%29.89 "HgN/A
5:00 AM77 °FPassing clouds.3 mph100%29.89 "HgN/A
4:00 AM79 °FPassing clouds.1 mph100%29.89 "HgN/A
3:00 AM79 °FPassing clouds.3 mph100%29.89 "HgN/A
2:00 AM81 °FPassing clouds.5 mph89%29.89 "HgN/A
1:00 AM81 °FPassing clouds.5 mph89%29.92 "HgN/A
12:00 AM81 °FPassing clouds.5 mph89%29.92 "HgN/A
11:00 PM
Fri, Jun 24
81 °FPassing clouds.5 mph89%29.92 "HgN/A
10:00 PM81 °FPassing clouds.6 mph89%29.92 "HgN/A
9:00 PM82 °FPassing clouds.7 mph84%29.92 "HgN/A
8:00 PM82 °FPassing clouds.8 mph79%29.89 "HgN/A
7:00 PM84 °FPassing clouds.8 mph74%29.86 "HgN/A
6:00 PM86 °FScattered clouds.12 mph70%29.86 "HgN/A
5:00 PM88 °FScattered clouds.14 mph66%29.86 "HgN/A
4:00 PM88 °FPassing clouds.7 mph70%29.86 "HgN/A
3:00 PM93 °FPassing clouds.12 mph59%29.86 "HgN/A
2:00 PM91 °FBroken clouds.15 mph52%29.89 "HgN/A
1:00 PM93 °FBroken clouds.10 mph59%29.92 "HgN/A
12:00 PM93 °FScattered clouds.9 mph59%29.95 "HgN/A
11:00 AM91 °FScattered clouds.12 mph63%29.98 "HgN/A
10:00 AM88 °FScattered clouds.9 mph70%29.95 "HgN/A
9:00 AM84 °FPassing clouds.2 mph79%29.95 "HgN/A
8:00 AM77 °FPartly sunny.2 mph100%29.95 "Hg5 mi
7:00 AM75 °FScattered clouds.2 mph100%29.92 "Hg3 mi
Weather by CustomWeather, © 2016

See weather overviewHow to use our weather pages